Location: Bratislava
(48.1500°N, 17.1167°E)
Time: 16:27:20
(UTC+01:00)

ISS - Pass Details

Date: 26 January 2020
Orbit: 415 x 422 km, 51.6° (Epoch: 26 February)

Event Time Altitude Azimuth Distance (km) Brightness Sun altitude
Rises 18:22:34 0° 259° (W) 2,376 1.9 -16.9°
Reaches altitude 10° 18:24:41 10° 263° (W) 1,511 0.4 -17.2°
Maximum altitude 18:28:03 60° 345° (NNW) 489 -3.5 -17.8°
Enters shadow 18:28:45 47° 36° (NE) 571 -3.4 -17.9°
